Location: The Saddle
(36.8333°N, 80.3417°W)
Time: 18:55:10
(UTC-05:00)

A-11 Canister half - Pass Details

Date: 10 December 2023
Orbit: 1526 x 1682 km, 47.3° (Epoch: 25 February)

Event Time Altitude Azimuth Distance (km) Brightness Sun altitude
Rises 17:07:15 0° 225° (SW) 4,878 13.5 -1.2°
Reaches altitude 10° 17:10:23 10° 224° (SW) 3,907 12.7 -1.8°
Maximum altitude 17:20:24 75° 141° (SE) 1,731 9.3 -3.6°
Drops below altitude 10° 17:30:31 10° 59° (ENE) 3,938 10.5 -5.4°
Enters shadow 17:31:46 - 58° (ENE) 4,322 10.7 -5.6°
Sets 17:33:41 0° 58° (ENE) 4,920 - -6.0°
